Year,Month,Day,Hour,Minute,Value (Times are PST for windspeed in km/hr)
2016,05,09,00,00,11.00
2016,05,09,00,01,9.70
2016,05,09,00,02,12.20
2016,05,09,00,03,10.10
2016,05,09,00,04,19.20
2016,05,09,00,05,8.90
2016,05,09,00,06,12.80
2016,05,09,00,07,15.90
2016,05,09,00,08,11.70
2016,05,09,00,09,14.50
2016,05,09,00,10,17.50
2016,05,09,00,11,16.10
2016,05,09,00,12,11.30
2016,05,09,00,13,12.20
2016,05,09,00,14,10.70
2016,05,09,00,15,14.60
2016,05,09,00,16,13.10
2016,05,09,00,17,13.80
2016,05,09,00,18,11.10
2016,05,09,00,19,11.60
2016,05,09,00,20,12.70
2016,05,09,00,21,11.70
2016,05,09,00,22,15.80
2016,05,09,00,23,16.60
2016,05,09,00,24,16.00
2016,05,09,00,25,17.40
2016,05,09,00,26,11.40
2016,05,09,00,27,14.40
2016,05,09,00,28,16.20
2016,05,09,00,29,14.50
2016,05,09,00,30,9.80
2016,05,09,00,31,14.50
2016,05,09,00,32,9.80
2016,05,09,00,33,13.50
2016,05,09,00,34,10.80
2016,05,09,00,35,10.80
2016,05,09,00,36,5.90
2016,05,09,00,37,7.80
2016,05,09,00,38,15.00
2016,05,09,00,39,8.40
2016,05,09,00,40,11.30
2016,05,09,00,41,8.20
2016,05,09,00,42,7.30
2016,05,09,00,43,8.90
2016,05,09,00,44,12.40
2016,05,09,00,45,8.40
2016,05,09,00,46,7.90
2016,05,09,00,47,10.00
2016,05,09,00,48,12.70
2016,05,09,00,49,6.70
2016,05,09,00,50,8.60
2016,05,09,00,51,8.90
2016,05,09,00,52,8.50
2016,05,09,00,53,8.10
2016,05,09,00,54,9.70
2016,05,09,00,55,9.40
2016,05,09,00,56,6.40
2016,05,09,00,57,7.90
2016,05,09,00,58,7.20
2016,05,09,00,59,6.80
2016,05,09,01,00,6.50
2016,05,09,01,01,8.50
2016,05,09,01,02,6.40
2016,05,09,01,03,5.60
2016,05,09,01,04,9.30
2016,05,09,01,05,11.40
2016,05,09,01,06,8.10
2016,05,09,01,07,8.70
2016,05,09,01,08,8.20
2016,05,09,01,09,9.80
2016,05,09,01,10,10.60
2016,05,09,01,11,8.10
2016,05,09,01,12,8.40
2016,05,09,01,13,7.20
2016,05,09,01,14,8.80
2016,05,09,01,15,6.20
2016,05,09,01,16,10.40
2016,05,09,01,17,7.50
2016,05,09,01,18,6.00
2016,05,09,01,19,7.30
2016,05,09,01,20,6.60
2016,05,09,01,21,8.90
2016,05,09,01,22,7.20
2016,05,09,01,23,7.30
2016,05,09,01,24,6.60
2016,05,09,01,25,6.50
2016,05,09,01,26,7.20
2016,05,09,01,27,4.20
2016,05,09,01,28,10.20
2016,05,09,01,29,9.40
2016,05,09,01,30,7.00
2016,05,09,01,31,8.50
2016,05,09,01,32,7.80
2016,05,09,01,33,7.40
2016,05,09,01,34,8.40
2016,05,09,01,35,10.00
2016,05,09,01,36,6.80
2016,05,09,01,37,5.00
2016,05,09,01,38,8.60
2016,05,09,01,39,7.70
2016,05,09,01,40,7.60
2016,05,09,01,41,10.00
2016,05,09,01,42,8.00
2016,05,09,01,43,6.90
2016,05,09,01,44,10.10
2016,05,09,01,45,9.00
2016,05,09,01,46,8.50
2016,05,09,01,47,9.70
2016,05,09,01,48,10.90
2016,05,09,01,49,7.70
2016,05,09,01,50,7.10
2016,05,09,01,51,8.80
2016,05,09,01,52,10.50
2016,05,09,01,53,13.00
2016,05,09,01,54,10.00
2016,05,09,01,55,8.70
2016,05,09,01,56,9.80
2016,05,09,01,57,9.90
2016,05,09,01,58,13.80
2016,05,09,01,59,11.30
2016,05,09,02,00,11.30
2016,05,09,02,01,10.10
2016,05,09,02,02,13.60
2016,05,09,02,03,11.00
2016,05,09,02,04,14.90
2016,05,09,02,05,11.30
2016,05,09,02,06,10.60
2016,05,09,02,07,12.00
2016,05,09,02,08,7.50
2016,05,09,02,09,8.90
2016,05,09,02,10,13.80
2016,05,09,02,11,10.10
2016,05,09,02,12,9.50
2016,05,09,02,13,9.40
2016,05,09,02,14,10.90
2016,05,09,02,15,12.60
2016,05,09,02,16,13.40
2016,05,09,02,17,8.30
2016,05,09,02,18,8.30
2016,05,09,02,19,13.90
2016,05,09,02,20,8.40
2016,05,09,02,21,10.50
2016,05,09,02,22,8.50
2016,05,09,02,23,6.70
2016,05,09,02,24,10.80
2016,05,09,02,25,9.70
2016,05,09,02,26,15.10
2016,05,09,02,27,8.10
2016,05,09,02,28,9.00
2016,05,09,02,29,9.10
2016,05,09,02,30,11.30
2016,05,09,02,31,9.40
2016,05,09,02,32,6.10
2016,05,09,02,33,10.20
2016,05,09,02,34,13.30
2016,05,09,02,35,11.70
2016,05,09,02,36,6.50
2016,05,09,02,37,7.60
2016,05,09,02,38,7.30
2016,05,09,02,39,6.80
2016,05,09,02,40,7.10
2016,05,09,02,41,8.60
2016,05,09,02,42,15.80
2016,05,09,02,43,10.70
2016,05,09,02,44,10.10
2016,05,09,02,45,9.30
2016,05,09,02,46,8.20
2016,05,09,02,47,13.20
2016,05,09,02,48,11.30
2016,05,09,02,49,10.20
2016,05,09,02,50,12.10
2016,05,09,02,51,10.70
2016,05,09,02,52,12.80
2016,05,09,02,53,10.80
2016,05,09,02,54,12.10
2016,05,09,02,55,13.80
2016,05,09,02,56,13.60
2016,05,09,02,57,7.50
2016,05,09,02,58,8.50
2016,05,09,02,59,12.00
2016,05,09,03,00,10.20
2016,05,09,03,01,15.30
2016,05,09,03,02,11.20
2016,05,09,03,03,14.60
2016,05,09,03,04,7.90
2016,05,09,03,05,16.30
2016,05,09,03,06,16.00
2016,05,09,03,07,12.80
2016,05,09,03,08,17.20
2016,05,09,03,09,10.50
2016,05,09,03,10,9.10
2016,05,09,03,11,5.90
2016,05,09,03,12,9.10
2016,05,09,03,13,9.40
2016,05,09,03,14,8.90
2016,05,09,03,15,9.70
2016,05,09,03,16,15.50
2016,05,09,03,17,9.90
2016,05,09,03,18,13.80
2016,05,09,03,19,12.20
2016,05,09,03,20,11.40
2016,05,09,03,21,14.70
2016,05,09,03,22,11.40
2016,05,09,03,23,10.50
2016,05,09,03,24,16.00
2016,05,09,03,25,13.20
2016,05,09,03,26,9.40
2016,05,09,03,27,8.30
2016,05,09,03,28,8.70
2016,05,09,03,29,7.30
2016,05,09,03,30,8.70
2016,05,09,03,31,10.80
2016,05,09,03,32,10.10
2016,05,09,03,33,10.30
2016,05,09,03,34,9.20
2016,05,09,03,35,12.70
2016,05,09,03,36,12.10
2016,05,09,03,37,10.30
2016,05,09,03,38,11.50
2016,05,09,03,39,8.60
2016,05,09,03,40,11.30
2016,05,09,03,41,10.50
2016,05,09,03,42,13.50
2016,05,09,03,43,13.20
2016,05,09,03,44,8.70
2016,05,09,03,45,10.00
2016,05,09,03,46,11.60
2016,05,09,03,47,14.30
2016,05,09,03,48,15.90
2016,05,09,03,49,12.20
2016,05,09,03,50,14.10
2016,05,09,03,51,17.20
2016,05,09,03,52,14.50
2016,05,09,03,53,13.50
2016,05,09,03,54,7.10
2016,05,09,03,55,11.50
2016,05,09,03,56,9.20
2016,05,09,03,57,13.40
2016,05,09,03,58,5.10
2016,05,09,03,59,10.60
2016,05,09,04,00,11.00
2016,05,09,04,01,9.30
2016,05,09,04,02,10.20
2016,05,09,04,03,8.90
2016,05,09,04,04,11.60
2016,05,09,04,05,13.20
2016,05,09,04,06,14.20
2016,05,09,04,07,8.70
2016,05,09,04,08,8.80
2016,05,09,04,09,10.40
2016,05,09,04,10,7.00
2016,05,09,04,11,10.20
2016,05,09,04,12,8.50
2016,05,09,04,13,6.70
2016,05,09,04,14,10.90
2016,05,09,04,15,9.10
2016,05,09,04,16,9.40
2016,05,09,04,17,8.60
2016,05,09,04,18,9.40
2016,05,09,04,19,11.70
2016,05,09,04,20,14.60
2016,05,09,04,21,12.60
2016,05,09,04,22,16.30
2016,05,09,04,23,12.80
2016,05,09,04,24,10.60
2016,05,09,04,25,7.60
2016,05,09,04,26,9.40
2016,05,09,04,27,10.20
2016,05,09,04,28,12.30
2016,05,09,04,29,9.10
2016,05,09,04,30,10.90
2016,05,09,04,31,10.90
2016,05,09,04,32,7.80
2016,05,09,04,33,13.00
2016,05,09,04,34,8.50
2016,05,09,04,35,13.20
2016,05,09,04,36,14.40
2016,05,09,04,37,11.30
2016,05,09,04,38,11.20
2016,05,09,04,39,7.50
2016,05,09,04,40,8.30
2016,05,09,04,41,11.90
2016,05,09,04,42,12.30
2016,05,09,04,43,15.00
2016,05,09,04,44,14.50
2016,05,09,04,45,11.80
2016,05,09,04,46,12.00
2016,05,09,04,47,9.50
2016,05,09,04,48,9.20
2016,05,09,04,49,7.50
2016,05,09,04,50,10.40
2016,05,09,04,51,8.00
2016,05,09,04,52,11.00
2016,05,09,04,53,9.10
2016,05,09,04,54,13.10
2016,05,09,04,55,12.30
2016,05,09,04,56,8.00
2016,05,09,04,57,9.30
2016,05,09,04,58,14.90
2016,05,09,04,59,9.70
2016,05,09,05,00,10.90
2016,05,09,05,01,8.40
2016,05,09,05,02,12.20
2016,05,09,05,03,13.40
2016,05,09,05,04,9.60
2016,05,09,05,05,9.20
2016,05,09,05,06,10.50
2016,05,09,05,07,10.00
2016,05,09,05,08,10.00
2016,05,09,05,09,8.90
2016,05,09,05,10,8.30
2016,05,09,05,11,10.70
2016,05,09,05,12,8.30
2016,05,09,05,13,9.10
2016,05,09,05,14,10.00
2016,05,09,05,15,16.70
2016,05,09,05,16,8.20
2016,05,09,05,17,12.50
2016,05,09,05,18,18.30
2016,05,09,05,19,16.00
2016,05,09,05,20,15.00
2016,05,09,05,21,20.30
2016,05,09,05,22,16.20
2016,05,09,05,23,18.50
2016,05,09,05,24,12.00
2016,05,09,05,25,13.00
2016,05,09,05,26,12.50
2016,05,09,05,27,16.20
2016,05,09,05,28,13.10
2016,05,09,05,29,13.00
2016,05,09,05,30,13.30
2016,05,09,05,31,11.80
2016,05,09,05,32,19.50
2016,05,09,05,33,15.30
2016,05,09,05,34,17.10
2016,05,09,05,35,11.10
2016,05,09,05,36,9.80
2016,05,09,05,37,11.80
2016,05,09,05,38,10.80
2016,05,09,05,39,10.80
2016,05,09,05,40,11.90
2016,05,09,05,41,7.50
2016,05,09,05,42,12.30
2016,05,09,05,43,10.90
2016,05,09,05,44,14.60
2016,05,09,05,45,11.50
2016,05,09,05,46,10.60
2016,05,09,05,47,12.60
2016,05,09,05,48,8.50
2016,05,09,05,49,11.80
2016,05,09,05,50,11.30
2016,05,09,05,51,11.50
2016,05,09,05,52,12.50
2016,05,09,05,53,9.70
2016,05,09,05,54,9.80
2016,05,09,05,55,10.50
2016,05,09,05,56,13.20
2016,05,09,05,57,13.90
2016,05,09,05,58,13.20
2016,05,09,05,59,13.10
2016,05,09,06,00,9.30
2016,05,09,06,01,8.60
2016,05,09,06,02,11.30
2016,05,09,06,03,10.30
2016,05,09,06,04,8.70
2016,05,09,06,05,9.00
2016,05,09,06,06,11.40
2016,05,09,06,07,12.00
2016,05,09,06,08,9.00
2016,05,09,06,09,13.70
2016,05,09,06,10,10.50
2016,05,09,06,11,8.80
2016,05,09,06,12,9.80
2016,05,09,06,13,11.60
2016,05,09,06,14,10.60
2016,05,09,06,15,8.00
2016,05,09,06,16,8.40
2016,05,09,06,17,13.20
2016,05,09,06,18,12.30
2016,05,09,06,19,17.40
2016,05,09,06,20,13.00
2016,05,09,06,21,7.70
2016,05,09,06,22,12.00
2016,05,09,06,23,11.80
2016,05,09,06,24,11.50
2016,05,09,06,25,10.10
2016,05,09,06,26,12.00
2016,05,09,06,27,9.10
2016,05,09,06,28,12.50
2016,05,09,06,29,13.80
2016,05,09,06,30,12.60
2016,05,09,06,31,14.60
2016,05,09,06,32,11.90
2016,05,09,06,33,10.40
2016,05,09,06,34,14.90
2016,05,09,06,35,12.90
2016,05,09,06,36,10.50
2016,05,09,06,37,11.40
2016,05,09,06,38,11.80
2016,05,09,06,39,6.70
2016,05,09,06,40,10.50
2016,05,09,06,41,9.90
2016,05,09,06,42,11.20
2016,05,09,06,43,10.70
2016,05,09,06,44,8.70
2016,05,09,06,45,15.90
2016,05,09,06,46,16.70
2016,05,09,06,47,7.20
2016,05,09,06,48,10.10
2016,05,09,06,49,10.20
2016,05,09,06,50,11.80
2016,05,09,06,51,10.80
2016,05,09,06,52,11.70
2016,05,09,06,53,10.90
2016,05,09,06,54,15.00
2016,05,09,06,55,15.30
2016,05,09,06,56,14.50
2016,05,09,06,57,13.00
2016,05,09,06,58,13.90
2016,05,09,06,59,9.70
2016,05,09,07,00,12.00
2016,05,09,07,01,9.70
2016,05,09,07,02,11.70
2016,05,09,07,03,13.00
2016,05,09,07,04,8.60
2016,05,09,07,05,6.70
2016,05,09,07,06,12.80
2016,05,09,07,07,10.00
2016,05,09,07,08,14.40
2016,05,09,07,09,13.40
2016,05,09,07,10,10.50
2016,05,09,07,11,13.30
2016,05,09,07,12,10.90
2016,05,09,07,13,9.80
2016,05,09,07,14,8.50
2016,05,09,07,15,12.60
2016,05,09,07,16,11.90
2016,05,09,07,17,13.70
2016,05,09,07,18,14.40
2016,05,09,07,19,15.70
2016,05,09,07,20,13.40
2016,05,09,07,21,10.10
2016,05,09,07,22,15.20
2016,05,09,07,23,13.00
2016,05,09,07,24,14.30
2016,05,09,07,25,9.50
2016,05,09,07,26,19.70
2016,05,09,07,27,15.80
2016,05,09,07,28,19.20
2016,05,09,07,29,14.70
2016,05,09,07,30,15.00
2016,05,09,07,31,18.70
2016,05,09,07,32,17.60
2016,05,09,07,33,16.60
2016,05,09,07,34,16.10
2016,05,09,07,35,13.60
2016,05,09,07,36,13.50
2016,05,09,07,37,13.40
2016,05,09,07,38,14.80
2016,05,09,07,39,9.10
2016,05,09,07,40,9.70
2016,05,09,07,41,8.70
2016,05,09,07,42,12.00
2016,05,09,07,43,14.50
2016,05,09,07,44,10.80
2016,05,09,07,45,9.30
2016,05,09,07,46,13.40
2016,05,09,07,47,16.20
2016,05,09,07,48,14.60
2016,05,09,07,49,15.80
2016,05,09,07,50,16.00
2016,05,09,07,51,12.20
2016,05,09,07,52,11.00
2016,05,09,07,53,11.30
2016,05,09,07,54,12.60
2016,05,09,07,55,17.10
2016,05,09,07,56,10.90
2016,05,09,07,57,16.80
2016,05,09,07,58,12.70
2016,05,09,07,59,13.60
2016,05,09,08,00,10.70
2016,05,09,08,01,16.60
2016,05,09,08,02,17.60
2016,05,09,08,03,23.10
2016,05,09,08,04,18.20
2016,05,09,08,05,14.60
2016,05,09,08,06,15.30
2016,05,09,08,07,13.50
2016,05,09,08,08,10.10
2016,05,09,08,09,9.40
2016,05,09,08,10,17.40
2016,05,09,08,11,12.60
2016,05,09,08,12,16.10
2016,05,09,08,13,14.30
2016,05,09,08,14,17.90
2016,05,09,08,15,13.50
2016,05,09,08,16,11.20
2016,05,09,08,17,13.10
2016,05,09,08,18,14.70
2016,05,09,08,19,14.60
2016,05,09,08,20,11.10
2016,05,09,08,21,11.70
2016,05,09,08,22,17.00
2016,05,09,08,23,15.80
2016,05,09,08,24,17.40
2016,05,09,08,25,17.10
2016,05,09,08,26,13.80
2016,05,09,08,27,10.90
2016,05,09,08,28,14.90
2016,05,09,08,29,18.80
2016,05,09,08,30,16.20
2016,05,09,08,31,20.50
2016,05,09,08,32,16.70
2016,05,09,08,33,11.40
2016,05,09,08,34,12.20
2016,05,09,08,35,15.90
2016,05,09,08,36,14.20
2016,05,09,08,37,17.10
2016,05,09,08,38,17.00
2016,05,09,08,39,17.10
2016,05,09,08,40,14.20
2016,05,09,08,41,19.70
2016,05,09,08,42,19.10
2016,05,09,08,43,12.20
2016,05,09,08,44,9.70
2016,05,09,08,45,19.50
2016,05,09,08,46,16.30
2016,05,09,08,47,15.00
2016,05,09,08,48,19.10
2016,05,09,08,49,12.20
2016,05,09,08,50,9.70
2016,05,09,08,51,12.10
2016,05,09,08,52,10.90
2016,05,09,08,53,11.40
2016,05,09,08,54,12.80
2016,05,09,08,55,18.30
2016,05,09,08,56,12.50
2016,05,09,08,57,15.20
2016,05,09,08,58,15.00
2016,05,09,08,59,10.70
2016,05,09,09,00,15.90
2016,05,09,09,01,11.00
2016,05,09,09,02,20.20
2016,05,09,09,03,17.70
2016,05,09,09,04,13.90
2016,05,09,09,05,18.80
2016,05,09,09,06,12.90
2016,05,09,09,07,9.90
2016,05,09,09,08,8.90
2016,05,09,09,09,10.50
2016,05,09,09,10,16.70
2016,05,09,09,11,11.70
2016,05,09,09,12,14.60
2016,05,09,09,13,14.90
2016,05,09,09,14,18.80
2016,05,09,09,15,13.40
2016,05,09,09,16,15.00
2016,05,09,09,17,12.50
2016,05,09,09,18,10.80
2016,05,09,09,19,13.90
2016,05,09,09,20,16.00
2016,05,09,09,21,12.60
2016,05,09,09,22,9.70
2016,05,09,09,23,9.40
2016,05,09,09,24,8.40
2016,05,09,09,25,11.50
2016,05,09,09,26,14.40
2016,05,09,09,27,11.40
2016,05,09,09,28,8.80
2016,05,09,09,29,8.30
2016,05,09,09,30,11.80
2016,05,09,09,31,14.60
2016,05,09,09,32,15.20
2016,05,09,09,33,9.30
2016,05,09,09,34,11.50
2016,05,09,09,35,13.20
2016,05,09,09,36,16.30
2016,05,09,09,37,11.50
2016,05,09,09,38,15.40
2016,05,09,09,39,12.90
2016,05,09,09,40,11.90
2016,05,09,09,41,19.80
2016,05,09,09,42,14.60
2016,05,09,09,43,11.00
2016,05,09,09,44,9.40
2016,05,09,09,45,12.40
2016,05,09,09,46,15.50
2016,05,09,09,47,9.80
2016,05,09,09,48,12.00
2016,05,09,09,49,9.50
2016,05,09,09,50,12.00
2016,05,09,09,51,7.50
2016,05,09,09,52,18.50
2016,05,09,09,53,13.60
2016,05,09,09,54,12.30
2016,05,09,09,55,9.30
2016,05,09,09,56,13.70
2016,05,09,09,57,12.60
2016,05,09,09,58,7.70
2016,05,09,09,59,9.80
2016,05,09,10,00,7.30
2016,05,09,10,01,11.10
2016,05,09,10,02,12.30
2016,05,09,10,03,17.80
2016,05,09,10,04,13.00
2016,05,09,10,05,13.80
2016,05,09,10,06,18.10
2016,05,09,10,07,15.70
2016,05,09,10,08,11.40
2016,05,09,10,09,18.10
2016,05,09,10,10,11.80
2016,05,09,10,11,14.20
2016,05,09,10,12,17.10
2016,05,09,10,13,15.90
2016,05,09,10,14,15.90
2016,05,09,10,15,14.60
2016,05,09,10,16,17.00
2016,05,09,10,17,14.70
2016,05,09,10,18,16.30
2016,05,09,10,19,11.30
2016,05,09,10,20,15.70
2016,05,09,10,21,12.20
2016,05,09,10,22,10.00
2016,05,09,10,23,12.90
2016,05,09,10,24,10.50
2016,05,09,10,25,7.50
2016,05,09,10,26,8.70
2016,05,09,10,27,15.10
2016,05,09,10,28,17.50
2016,05,09,10,29,12.20
2016,05,09,10,30,11.60
2016,05,09,10,31,9.30
2016,05,09,10,32,11.70
2016,05,09,10,33,10.90
2016,05,09,10,34,12.60
2016,05,09,10,35,15.60
2016,05,09,10,36,8.10
2016,05,09,10,37,12.80
2016,05,09,10,38,7.60
2016,05,09,10,39,12.50
2016,05,09,10,40,13.80
2016,05,09,10,41,9.20
2016,05,09,10,42,6.60
2016,05,09,10,43,10.80
2016,05,09,10,44,6.40
2016,05,09,10,45,9.30
2016,05,09,10,46,11.60
2016,05,09,10,47,10.00
2016,05,09,10,48,14.10
2016,05,09,10,49,13.00
2016,05,09,10,50,10.70
2016,05,09,10,51,8.90
2016,05,09,10,52,11.80
2016,05,09,10,53,13.60
2016,05,09,10,54,11.70
2016,05,09,10,55,12.60
2016,05,09,10,56,14.30
2016,05,09,10,57,6.40
2016,05,09,10,58,7.80
2016,05,09,10,59,6.00
2016,05,09,11,00,10.20
2016,05,09,11,01,7.60
2016,05,09,11,02,7.20
2016,05,09,11,03,7.20
2016,05,09,11,04,8.40
2016,05,09,11,05,9.60
2016,05,09,11,06,8.80
2016,05,09,11,07,5.40
2016,05,09,11,08,7.80
2016,05,09,11,09,8.30
2016,05,09,11,10,7.90
2016,05,09,11,11,8.60
2016,05,09,11,12,11.10
2016,05,09,11,13,7.90
2016,05,09,11,14,10.20
2016,05,09,11,15,8.00
2016,05,09,11,16,9.20
2016,05,09,11,17,10.30
2016,05,09,11,18,5.40
2016,05,09,11,19,7.60
2016,05,09,11,20,12.90
2016,05,09,11,21,6.50
2016,05,09,11,22,5.60
2016,05,09,11,23,11.40
2016,05,09,11,24,15.70
2016,05,09,11,25,16.20
2016,05,09,11,26,14.60
2016,05,09,11,27,16.50
2016,05,09,11,28,18.70
2016,05,09,11,29,17.50
2016,05,09,11,30,12.50
2016,05,09,11,31,10.50
2016,05,09,11,32,8.80
2016,05,09,11,33,5.50
2016,05,09,11,34,11.20
2016,05,09,11,35,9.20
2016,05,09,11,36,10.10
2016,05,09,11,37,4.70
2016,05,09,11,38,9.60
2016,05,09,11,39,10.20
2016,05,09,11,40,3.90
2016,05,09,11,41,4.60
2016,05,09,11,42,6.40
2016,05,09,11,43,13.40
2016,05,09,11,44,12.00
2016,05,09,11,45,14.20
2016,05,09,11,46,7.60
2016,05,09,11,47,8.60
2016,05,09,11,48,7.40
2016,05,09,11,49,12.90
2016,05,09,11,50,7.90
2016,05,09,11,51,11.00
2016,05,09,11,52,9.40
2016,05,09,11,53,9.50
2016,05,09,11,54,11.90
2016,05,09,11,55,15.70
2016,05,09,11,56,13.70
2016,05,09,11,57,5.60
2016,05,09,11,58,10.30
2016,05,09,11,59,7.20
2016,05,09,12,00,12.60
2016,05,09,12,01,15.00
2016,05,09,12,02,10.40
2016,05,09,12,03,9.00
2016,05,09,12,04,8.50
2016,05,09,12,05,17.30
2016,05,09,12,06,9.40
2016,05,09,12,07,17.60
2016,05,09,12,08,12.20
2016,05,09,12,09,9.30
2016,05,09,12,10,7.50
2016,05,09,12,11,5.60
2016,05,09,12,12,6.20
2016,05,09,12,13,15.40
2016,05,09,12,14,13.40
2016,05,09,12,15,14.20
2016,05,09,12,16,11.20
2016,05,09,12,17,9.30
2016,05,09,12,18,7.70
2016,05,09,12,19,9.50
2016,05,09,12,20,11.30
2016,05,09,12,21,7.30
2016,05,09,12,22,12.00
2016,05,09,12,23,13.00
2016,05,09,12,24,14.70
2016,05,09,12,25,8.40
2016,05,09,12,26,8.70
2016,05,09,12,27,10.10
2016,05,09,12,28,13.60
2016,05,09,12,29,14.90
2016,05,09,12,30,11.60
2016,05,09,12,31,7.70
2016,05,09,12,32,7.20
2016,05,09,12,33,14.00
2016,05,09,12,34,8.10
2016,05,09,12,35,11.30
2016,05,09,12,36,10.80
2016,05,09,12,37,11.20
2016,05,09,12,38,8.40
2016,05,09,12,39,12.20
2016,05,09,12,40,8.40
2016,05,09,12,41,5.80
2016,05,09,12,42,12.00
2016,05,09,12,43,11.10
2016,05,09,12,44,9.30
2016,05,09,12,45,8.00
2016,05,09,12,46,8.40
2016,05,09,12,47,7.60
2016,05,09,12,48,6.10
2016,05,09,12,49,10.00
2016,05,09,12,50,9.30
2016,05,09,12,51,8.20
2016,05,09,12,52,9.30
2016,05,09,12,53,8.20
2016,05,09,12,54,8.90
2016,05,09,12,55,6.90
2016,05,09,12,56,7.10
2016,05,09,12,57,7.20
2016,05,09,12,58,8.30
2016,05,09,12,59,8.40
2016,05,09,13,00,8.60
2016,05,09,13,01,5.10
2016,05,09,13,02,9.30
2016,05,09,13,03,10.10
2016,05,09,13,04,6.90
2016,05,09,13,05,7.90
2016,05,09,13,06,7.60
2016,05,09,13,07,6.80
2016,05,09,13,08,5.40
2016,05,09,13,09,7.40
2016,05,09,13,10,10.30
2016,05,09,13,11,6.40
2016,05,09,13,12,6.40
2016,05,09,13,13,6.60
2016,05,09,13,14,5.70
2016,05,09,13,15,6.10
2016,05,09,13,16,8.60
2016,05,09,13,17,6.30
2016,05,09,13,18,6.70
2016,05,09,13,19,5.10
2016,05,09,13,20,4.50
2016,05,09,13,21,4.80
2016,05,09,13,22,5.80
2016,05,09,13,23,8.10
2016,05,09,13,24,6.40
2016,05,09,13,25,6.80
2016,05,09,13,26,5.20
2016,05,09,13,27,7.30
2016,05,09,13,28,12.20
2016,05,09,13,29,7.90
2016,05,09,13,30,8.80
2016,05,09,13,31,7.20
2016,05,09,13,32,6.30
2016,05,09,13,33,6.00
2016,05,09,13,34,7.20
2016,05,09,13,35,6.10
2016,05,09,13,36,7.00
2016,05,09,13,37,5.60
2016,05,09,13,38,8.00
2016,05,09,13,39,4.30
2016,05,09,13,40,4.50
2016,05,09,13,41,5.40
2016,05,09,13,42,5.80
2016,05,09,13,43,5.00
2016,05,09,13,44,5.90
2016,05,09,13,45,6.90
2016,05,09,13,46,6.60
2016,05,09,13,47,6.30
2016,05,09,13,48,4.50
2016,05,09,13,49,5.30
2016,05,09,13,50,4.20
2016,05,09,13,51,3.80
2016,05,09,13,52,6.30
2016,05,09,13,53,5.50
2016,05,09,13,54,13.00
2016,05,09,13,55,9.60
2016,05,09,13,56,11.00
2016,05,09,13,57,7.40
2016,05,09,13,58,9.50
2016,05,09,13,59,6.80
2016,05,09,14,00,7.00
2016,05,09,14,01,6.80
2016,05,09,14,02,4.30
2016,05,09,14,03,10.90
2016,05,09,14,04,6.90
2016,05,09,14,05,6.70
2016,05,09,14,06,8.30
2016,05,09,14,07,9.20
2016,05,09,14,08,8.10
2016,05,09,14,09,8.00
2016,05,09,14,10,8.10
2016,05,09,14,11,8.50
2016,05,09,14,12,9.80
2016,05,09,14,13,9.10
2016,05,09,14,14,9.40
2016,05,09,14,15,11.00
2016,05,09,14,16,12.90
2016,05,09,14,17,10.50
2016,05,09,14,18,13.00
2016,05,09,14,19,14.50
2016,05,09,14,20,10.70
2016,05,09,14,21,5.80
2016,05,09,14,22,8.50
2016,05,09,14,23,5.80
2016,05,09,14,24,6.70
2016,05,09,14,25,6.90
2016,05,09,14,26,8.40
2016,05,09,14,27,6.80
2016,05,09,14,28,5.00
2016,05,09,14,29,9.00
2016,05,09,14,30,5.60
2016,05,09,14,31,7.30
2016,05,09,14,32,3.90
2016,05,09,14,33,8.80
2016,05,09,14,34,8.80
2016,05,09,14,35,10.20
2016,05,09,14,36,8.80
2016,05,09,14,37,7.60
2016,05,09,14,38,13.20
2016,05,09,14,39,12.20
2016,05,09,14,40,5.70
2016,05,09,14,41,6.40
2016,05,09,14,42,5.70
2016,05,09,14,43,4.70
2016,05,09,14,44,10.60
2016,05,09,14,45,10.70
2016,05,09,14,46,9.70
2016,05,09,14,47,4.50
2016,05,09,14,48,6.70
2016,05,09,14,49,9.60
2016,05,09,14,50,6.40
2016,05,09,14,51,10.90
2016,05,09,14,52,6.30
2016,05,09,14,53,8.80
2016,05,09,14,54,6.50
2016,05,09,14,55,4.90
2016,05,09,14,56,6.80
2016,05,09,14,57,5.60
2016,05,09,14,58,5.10
2016,05,09,14,59,7.10
2016,05,09,15,00,7.20
2016,05,09,15,01,7.80
2016,05,09,15,02,6.80
2016,05,09,15,03,7.20
2016,05,09,15,04,7.00
2016,05,09,15,05,6.40
2016,05,09,15,06,7.10
2016,05,09,15,07,6.10
2016,05,09,15,08,4.30
2016,05,09,15,09,5.50
2016,05,09,15,10,6.00
2016,05,09,15,11,10.00
2016,05,09,15,12,9.40
2016,05,09,15,13,7.70
2016,05,09,15,14,6.00
2016,05,09,15,15,10.90
2016,05,09,15,16,6.80
2016,05,09,15,17,5.60
2016,05,09,15,18,6.00
2016,05,09,15,19,5.30
2016,05,09,15,20,7.60
2016,05,09,15,21,8.90
2016,05,09,15,22,6.10
2016,05,09,15,23,5.70
2016,05,09,15,24,6.00
2016,05,09,15,25,12.50
2016,05,09,15,26,10.10
2016,05,09,15,27,8.70
2016,05,09,15,28,5.30
2016,05,09,15,29,4.40
2016,05,09,15,30,6.10
2016,05,09,15,31,4.50
2016,05,09,15,32,7.60
2016,05,09,15,33,8.20
2016,05,09,15,34,4.50
2016,05,09,15,35,6.00
2016,05,09,15,36,7.80
2016,05,09,15,37,5.50
2016,05,09,15,38,5.10
2016,05,09,15,39,4.20
2016,05,09,15,40,9.10
2016,05,09,15,41,9.00
2016,05,09,15,42,4.60
2016,05,09,15,43,2.90
2016,05,09,15,44,7.00
2016,05,09,15,45,3.50
2016,05,09,15,46,4.10
2016,05,09,15,47,7.50
2016,05,09,15,48,8.00
2016,05,09,15,49,5.40
2016,05,09,15,50,5.20
2016,05,09,15,51,7.60
2016,05,09,15,52,6.80
2016,05,09,15,53,8.20
2016,05,09,15,54,6.00
2016,05,09,15,55,6.90
2016,05,09,15,56,6.50
2016,05,09,15,57,6.40
2016,05,09,15,58,6.90
2016,05,09,15,59,6.00
2016,05,09,16,00,6.90
2016,05,09,16,01,5.10
2016,05,09,16,02,5.70
2016,05,09,16,03,6.40
2016,05,09,16,04,5.10
2016,05,09,16,05,7.20
2016,05,09,16,06,4.60
2016,05,09,16,07,5.10
2016,05,09,16,08,5.60
2016,05,09,16,09,3.50
2016,05,09,16,10,7.60
2016,05,09,16,11,6.40
2016,05,09,16,12,5.70
2016,05,09,16,13,5.40
2016,05,09,16,14,6.70
2016,05,09,16,15,7.30
2016,05,09,16,16,7.60
2016,05,09,16,17,7.40
2016,05,09,16,18,6.60
2016,05,09,16,19,7.10
2016,05,09,16,20,6.90
2016,05,09,16,21,8.30
2016,05,09,16,22,8.80
2016,05,09,16,23,6.60
2016,05,09,16,24,6.10
2016,05,09,16,25,7.10
2016,05,09,16,26,5.40
2016,05,09,16,27,11.40
2016,05,09,16,28,8.10
2016,05,09,16,29,8.10
2016,05,09,16,30,10.90
2016,05,09,16,31,9.20
2016,05,09,16,32,8.60
2016,05,09,16,33,5.60
2016,05,09,16,34,5.20
2016,05,09,16,35,6.80
2016,05,09,16,36,7.90
2016,05,09,16,37,5.10
2016,05,09,16,38,4.20
2016,05,09,16,39,6.60
2016,05,09,16,40,5.60
2016,05,09,16,41,6.80
2016,05,09,16,42,3.60
2016,05,09,16,43,7.50
2016,05,09,16,44,4.90
2016,05,09,16,45,4.70
2016,05,09,16,46,9.80
2016,05,09,16,47,7.80
2016,05,09,16,48,5.50
2016,05,09,16,49,8.60
2016,05,09,16,50,6.50
2016,05,09,16,51,4.70
2016,05,09,16,52,4.30
2016,05,09,16,53,9.20
2016,05,09,16,54,10.00
2016,05,09,16,55,8.40
2016,05,09,16,56,10.60
2016,05,09,16,57,8.00
2016,05,09,16,58,5.80
2016,05,09,16,59,7.70
2016,05,09,17,00,9.00
2016,05,09,17,01,6.00
2016,05,09,17,02,9.40
2016,05,09,17,03,7.70
2016,05,09,17,04,9.40
2016,05,09,17,05,7.00
2016,05,09,17,06,4.70
2016,05,09,17,07,6.90
2016,05,09,17,08,5.60
2016,05,09,17,09,6.20
2016,05,09,17,10,6.60
2016,05,09,17,11,9.90
2016,05,09,17,12,7.10
2016,05,09,17,13,6.50
2016,05,09,17,14,7.70
2016,05,09,17,15,5.40
2016,05,09,17,16,4.90
2016,05,09,17,17,5.80
2016,05,09,17,18,3.60
2016,05,09,17,19,5.20
2016,05,09,17,20,2.60
2016,05,09,17,21,3.90
2016,05,09,17,22,7.10
2016,05,09,17,23,9.00
2016,05,09,17,24,4.50
2016,05,09,17,25,7.00
2016,05,09,17,26,8.90
2016,05,09,17,27,8.30
2016,05,09,17,28,5.10
2016,05,09,17,29,5.50
2016,05,09,17,30,5.90
2016,05,09,17,31,5.80
2016,05,09,17,32,4.50
2016,05,09,17,33,5.10
2016,05,09,17,34,6.20
2016,05,09,17,35,7.90
2016,05,09,17,36,8.50
2016,05,09,17,37,5.10
2016,05,09,17,38,6.60
2016,05,09,17,39,7.70
2016,05,09,17,40,7.90
2016,05,09,17,41,7.50
2016,05,09,17,42,10.80